Location: Moscow
(55.7500°N, 37.5830°E)
Time: 06:00:25
(UTC+03:00)

Envisat - Pass Details

Date: 26 October 2021
Orbit: 764 x 766 km, 98.2° (Epoch: 28 November)

Event Time Altitude Azimuth Distance (km) Brightness Sun altitude
Rises 04:20:47 0° 24° (NNE) 3,247 6.8 -26.0°
Reaches altitude 10° 04:23:49 10° 43° (NE) 2,315 6.2 -25.6°
Maximum altitude 04:27:20 19° 86° (E) 1,791 5.7 -25.1°
Drops below altitude 10° 04:30:50 10° 130° (SE) 2,302 5.9 -24.6°
Sets 04:33:49 0° 149° (SSE) 3,222 6.4 -24.2°
